Liberia, Costa Rica

8:34 AM CST on February 23, 2017 (GMT -0600)
Daniel Oduber Quiros International

Weather History for MRLB - April, 2013

Change the Weather History Date:

Thursday, April 11, 2013

  Actual Average Record
Temperature  
Mean Temperature 85 °F -  
Max Temperature 98 °F 92 °F 98 °F (2013)
Min Temperature 72 °F 76 °F 67 °F (2012)
Cooling Degree Days 20    
Growing Degree Days 35 (Base 50)    
Moisture  
Dew Point 64 °F    
Average Humidity 45    
Maximum Humidity 78    
Minimum Humidity 21    
Precipitation  
Precipitation 0.00 in - - ()
Sea Level Pressure  
Sea Level Pressure 29.77 in    
Wind  
Wind Speed 5 mph ()    
Max Wind Speed 15 mph    
Max Gust Speed -    
Visibility 8.3 miles    
Events      
Averages and records for this station are not official NWS values.
T = Trace of Precipitation, MM = Missing Value Source: Averaged Metar Reports

Daily Weather History Graph

Daily Weather History Graph

Search for Another Location

Airport or City:

Trip Planner

Search our weather history database for the weather conditions in past years. The results will help you decide how hot, cold, wet, or windy it might be!

Date:

Astronomy

Apr. 11, 2013 Rise Set
Actual Time 5:33 AM CST 5:53 PM CST
Civil Twilight 5:12 AM CST 6:14 PM CST
Nautical Twilight 4:47 AM CST 6:39 PM CST
Astronomical Twilight 4:22 AM CST 7:04 PM CST
Moon 6:20 AM CST (4/11) 7:06 PM CST (4/11)
Length of Visible Light 13h 02m
Length of Day
12h 19m
New Moon, 2% of the Moon is Illuminated
Apr 11
New Moon
Apr 18
First Quarter
Apr 25
Full
May 2
Last Quarter
May 9
New

Hourly Weather History & Observations

Time (CST) Temp. Heat Index Dew Point Humidity Pressure Visibility Wind Dir Wind Speed Gust Speed Precip Events Conditions
6:00 AM 73 °F - 67 °F 75% 29.81 in 12 mi ESE 2.3 mph - -   Overcast
6:00 AM 73.4 °F - 66.2 °F 78% 29.80 in - ESE 2.3 mph - N/A   Clear
7:00 AM 78.8 °F - 68.0 °F 69% 29.82 in - South 3.5 mph - N/A   Clear
8:00 AM 84.2 °F 86.6 °F 66.2 °F 55% 29.84 in - West 2.3 mph - N/A   Clear
9:00 AM 87 °F - 65 °F 38% 29.86 in 12 mi WSW 3.5 mph - -   Overcast
9:00 AM 87.8 °F 89.4 °F 64.4 °F 46% 29.85 in - WSW 3.5 mph - N/A   Clear
10:00 AM 91.4 °F 92.1 °F 62.6 °F 38% 29.83 in - NW 3.5 mph - N/A   Clear
11:00 AM 95.0 °F 95.2 °F 60.8 °F 32% 29.80 in - South 4.6 mph - N/A   Clear
12:00 PM 95 °F - 60 °F 21% 29.79 in 12 mi SE 5.8 mph - -   Scattered Clouds
12:00 PM 95.0 °F 94.4 °F 59.0 °F 30% 29.77 in 6.2 mi SE 5.8 mph - N/A   Mostly Cloudy
1:00 PM 95.0 °F 97.0 °F 64.4 °F 36% 29.74 in 6.2 mi WSW 6.9 mph - N/A   Mostly Cloudy
2:00 PM 96.8 °F 99.0 °F 64.4 °F 34% 29.72 in 6.2 mi West 11.5 mph - N/A   Mostly Cloudy
3:00 PM 92 °F - 66 °F 33% 29.72 in 12 mi WSW 15.0 mph - -   Overcast
3:00 PM 91.4 °F 94.0 °F 66.2 °F 43% 29.70 in 6.2 mi WSW 15.0 mph - N/A   Mostly Cloudy
4:00 PM 91.4 °F 93.2 °F 64.4 °F 41% 29.70 in 6.2 mi WSW 15.0 mph - N/A   Mostly Cloudy
5:00 PM 89.6 °F 92.2 °F 66.2 °F 46% 29.71 in 6.2 mi West 11.5 mph - N/A   Overcast
6:00 PM 87 °F - 64 °F 36% 29.75 in 12 mi SW 8.1 mph - -   Overcast
6:00 PM 86.0 °F 87.3 °F 64.4 °F 48% 29.73 in 6.2 mi SW 8.1 mph - N/A   Mostly Cloudy
7:00 PM 86.0 °F 87.3 °F 64.4 °F 48% 29.76 in 6.2 mi SW 2.3 mph - N/A   Mostly Cloudy
8:00 PM 84.2 °F 86.6 °F 66.2 °F 55% 29.78 in 6.2 mi North 2.3 mph - N/A   Mostly Cloudy